Latest Weather Observations for Narrabri

IDN60801

Issued at 10:05 am EST Saturday 19 April 2014 (issued every 30 minutes, with the page automatically refreshed every 10 minutes)

About weather observations | Map of weather stations | Latest weather observations for NSW | Other Formats
Station Details ID: 054038 Name: NARRABRI AIRPORT AWS Lat: -30.32 Lon: 149.83 Height: 229.02 m
Data from the previous 72 hours. | See also: Recent months at Narrabri
Date/Time
EST
Temp
°C
App
Temp
°C
Dew
Point
Rel
Hum
%
Delta-T
°C
Wind Press
QNH
hPa
Press
MSL
hPa
Rain
since 9 am
mm
Dir
 
Spd
km/h
Gust
km/h
Spd
kts
Gust
kts
19/10:00am 20.3 18.7 8.9 48 6.1 WNW 7 13 4 7 1018.8 1018.1 0.0
19/09:30am 18.2 17.1 9.8 58 4.5 W 6 9 3 5 1018.9 - 0.0
19/09:00am 16.8 15.2 10.2 65 3.5 WSW 9 13 5 7 1019.0 1018.3 0.0
19/08:30am 14.6 12.2 10.0 74 2.4 S 13 15 7 8 1019.0 - 0.0
19/08:00am 12.8 12.2 10.3 85 1.3 SSW 4 20 2 11 1018.7 1018.0 0.0
19/07:30am 11.3 11.2 9.4 88 1.0 NE 0 0 0 0 1018.1 - 0.0
19/07:00am 8.6 6.9 7.5 93 0.5 S 6 7 3 4 1018.0 1017.3 0.0
19/06:30am 8.0 7.2 6.3 89 0.8 SW 0 9 0 5 1017.6 - 0.0
19/06:00am 10.5 8.5 8.8 89 0.8 E 9 15 5 8 1017.2 1016.5 0.0
19/05:30am 8.4 7.3 6.7 89 0.8 S 2 6 1 3 1017.2 - 0.0
19/05:00am 8.6 6.4 6.2 85 1.1 SSW 7 13 4 7 1017.0 1016.3 0.0
19/04:30am 12.0 9.6 8.7 80 1.7 E 11 19 6 10 1016.6 - 0.0
19/04:00am 11.2 9.3 7.7 79 1.7 E 7 11 4 6 1016.5 1015.8 0.0
19/03:30am 10.9 8.8 8.1 83 1.4 E 9 13 5 7 1016.6 - 0.0
19/03:00am 9.6 7.9 7.5 87 1.0 ESE 6 7 3 4 1016.6 1015.9 0.0
19/02:30am 9.0 7.9 7.1 88 0.9 E 2 9 1 5 1016.9 - 0.0
19/02:00am 9.6 8.6 7.2 85 1.1 N 2 6 1 3 1017.1 1016.4 0.0
19/01:30am 9.9 9.3 7.2 83 1.3 CALM 0 0 0 0 1017.3 - 0.0
19/01:00am 10.8 9.8 7.3 79 1.7 S 2 7 1 4 1017.3 1016.6 0.0
19/12:30am 10.7 10.0 6.8 77 1.9 CALM 0 0 0 0 1017.5 - 0.0
19/12:00am 12.4 11.4 7.3 71 2.5 SSE 2 6 1 3 1017.6 1016.9 0.0
 
Date/Time
EST
Temp
°C
App
Temp
°C
Dew
Point
Rel
Hum
%
Delta-T
°C
Wind Press
QNH
hPa
Press
MSL
hPa
Rain
since 9 am
mm
Dir
 
Spd
km/h
Gust
km/h
Spd
kts
Gust
kts
18/11:30pm 13.5 10.4 7.3 66 3.1 E 13 15 7 8 1017.6 - 0.0
18/11:00pm 12.7 10.6 6.7 67 2.9 E 7 9 4 5 1017.9 1017.2 0.0
18/10:30pm 14.0 11.9 5.9 58 3.9 SE 6 11 3 6 1017.9 - 0.0
18/10:00pm 17.0 14.1 6.5 50 5.2 SE 11 15 6 8 1017.9 1017.2 0.0
18/09:30pm 17.1 13.9 6.9 51 5.1 SSE 13 17 7 9 1017.8 - 0.0
18/09:00pm 15.9 13.1 6.9 55 4.5 SSE 11 13 6 7 1017.7 1017.0 0.0
18/08:30pm 14.4 12.2 6.3 58 3.9 S 7 9 4 5 1017.4 - 0.0
18/08:00pm 16.8 14.3 6.6 51 5.1 SSW 9 11 5 6 1016.9 1016.2 0.0
18/07:30pm 17.2 15.1 6.7 50 5.3 SW 7 9 4 5 1016.6 - 0.0
18/07:00pm 18.1 15.3 6.9 48 5.7 WSW 11 15 6 8 1016.4 1015.7 0.0
18/06:30pm 18.1 14.8 6.6 47 5.8 WSW 13 15 7 8 1016.0 - 0.0
18/06:00pm 19.0 15.2 5.8 42 6.6 WSW 15 17 8 9 1015.8 1015.1 0.0
18/05:30pm 21.7 17.4 5.2 34 8.3 WSW 17 22 9 12 1015.6 - 0.0
18/05:00pm 24.1 19.2 5.0 29 9.7 WSW 20 26 11 14 1015.3 1014.6 0.0
18/04:30pm 24.9 20.0 5.2 28 10.1 WSW 20 28 11 15 1015.1 - 0.0
18/04:00pm 25.5 20.3 5.7 28 10.3 WSW 22 33 12 18 1014.9 1014.2 0.0
18/03:30pm 25.9 21.5 6.5 29 10.2 WSW 19 26 10 14 1014.8 - 0.0
18/03:00pm 25.8 20.9 6.9 30 10.0 WSW 22 32 12 17 1014.9 1014.2 0.0
18/02:30pm 25.3 21.0 7.0 31 9.7 SSW 19 24 10 13 1015.2 - 0.0
18/02:00pm 25.3 23.0 7.4 32 9.5 W 9 20 5 11 1015.4 1014.7 0.0
18/01:30pm 24.9 23.5 8.8 36 8.8 SW 6 11 3 6 1015.7 - 0.0
18/01:00pm 24.3 22.3 8.7 37 8.5 W 9 17 5 9 1016.3 1015.6 0.0
18/12:30pm 23.5 21.0 8.0 37 8.3 WSW 11 19 6 10 1016.8 - 0.0
18/12:00pm 23.6 19.9 8.1 37 8.3 S 17 24 9 13 1017.3 1016.6 0.0
18/11:30am 22.8 18.5 7.0 36 8.2 SSW 19 24 10 13 1017.9 - 0.0
18/11:00am 21.9 20.1 9.4 45 6.8 WSW 9 17 5 9 1018.4 1017.7 0.0
18/10:30am 21.1 19.3 9.4 47 6.3 SW 9 13 5 7 1018.8 - 0.0
18/10:00am 20.3 18.6 9.8 51 5.7 SSW 9 15 5 8 1018.9 1018.2 0.0
18/09:30am 18.5 16.9 10.1 58 4.5 S 9 13 5 7 1019.1 - 0.0
18/09:00am 17.3 15.8 10.4 64 3.7 SSW 9 11 5 6 1019.1 1018.4 0.0
18/08:30am 15.1 14.2 11.5 79 2.0 SSW 7 9 4 5 1019.1 - 0.0
18/08:00am 11.7 11.1 10.3 91 0.7 SSW 4 7 2 4 1019.1 1018.4 0.0
18/07:30am 9.6 8.9 8.5 93 0.5 SSW 2 6 1 3 1019.0 - 0.0
18/07:00am 8.3 7.8 7.9 97 0.2 CALM 0 0 0 0 1018.7 1018.0 0.0
18/06:30am 7.5 6.9 7.2 98 0.1 CALM 0 0 0 0 1018.6 - 0.0
18/06:00am 7.6 7.0 7.2 97 0.2 CALM 0 0 0 0 1018.5 1017.8 0.0
18/05:30am 7.6 6.9 7.0 96 0.3 CALM 0 0 0 0 1018.4 - 0.0
18/05:00am 7.7 6.9 6.6 93 0.5 CALM 0 0 0 0 1018.3 1017.6 0.0
18/04:30am 7.9 7.2 7.0 94 0.4 CALM 0 0 0 0 1018.1 - 0.0
18/04:00am 8.1 7.3 6.6 90 0.7 CALM 0 0 0 0 1018.0 1017.3 0.0
18/03:30am 8.7 8.1 7.5 92 0.6 CALM 0 0 0 0 1017.9 - 0.0
18/03:00am 8.5 7.7 6.6 88 0.9 CALM 0 0 0 0 1018.0 1017.3 0.0
18/02:30am 8.8 8.1 6.8 87 0.9 CALM 0 0 0 0 1018.1 - 0.0
18/02:00am 9.4 8.7 6.8 84 1.2 CALM 0 0 0 0 1018.3 1017.6 0.0
18/01:30am 10.2 9.6 7.3 82 1.4 CALM 0 0 0 0 1018.5 - 0.0
18/01:00am 10.9 9.2 7.6 80 1.6 E 6 7 3 4 1018.6 1017.9 0.0
18/12:30am 11.3 9.5 8.0 80 1.6 E 7 9 4 5 1018.9 - 0.0
18/12:00am 10.5 7.9 7.9 84 1.3 ENE 11 15 6 8 1019.2 1018.5 0.0
 
Date/Time
EST
Temp
°C
App
Temp
°C
Dew
Point
Rel
Hum
%
Delta-T
°C
Wind Press
QNH
hPa
Press
MSL
hPa
Rain
since 9 am
mm
Dir
 
Spd
km/h
Gust
km/h
Spd
kts
Gust
kts
17/11:30pm 10.3 8.6 7.4 82 1.4 ESE 6 11 3 6 1019.4 - 0.0
17/11:00pm 12.1 10.2 6.8 70 2.6 S 6 7 3 4 1019.4 1018.7 0.0
17/10:30pm 13.3 11.3 7.3 67 3.0 S 7 11 4 6 1019.6 - 0.0
17/10:00pm 11.5 10.3 8.0 79 1.7 SE 4 7 2 4 1019.5 1018.8 0.0
17/09:30pm 11.4 10.1 7.7 78 1.8 ENE 4 7 2 4 1019.4 - 0.0
17/09:00pm 13.4 12.0 5.6 59 3.7 SSE 2 7 1 4 1019.1 1018.4 0.0
17/08:30pm 16.5 14.0 6.6 52 4.9 SSE 9 11 5 6 1019.0 - 0.0
17/08:00pm 16.8 14.0 6.9 52 4.9 SSE 11 15 6 8 1018.8 1018.1 0.0
17/07:30pm 17.5 14.5 7.5 52 5.1 SSE 13 15 7 8 1018.6 - 0.0
17/07:00pm 16.9 14.3 9.3 61 4.0 SSE 13 17 7 9 1018.2 1017.5 0.0
17/06:30pm 19.2 17.2 8.5 50 5.6 SE 9 11 5 6 1017.6 - 0.0
17/06:00pm 19.3 17.4 8.9 51 5.5 SE 9 11 5 6 1017.4 1016.7 0.0
17/05:30pm 21.2 19.7 9.1 46 6.5 SE 7 9 4 5 1017.3 - 0.0
17/05:00pm 22.3 20.7 8.8 42 7.2 SE 7 9 4 5 1017.0 1016.3 0.0
17/04:30pm 23.0 20.5 8.3 39 7.9 SE 11 15 6 8 1017.0 - 0.0
17/04:00pm 22.4 20.3 8.1 40 7.6 SSE 9 11 5 6 1017.1 1016.4 0.0
17/03:30pm 23.5 21.0 8.0 37 8.3 SE 11 15 6 8 1016.8 - 0.0
17/03:00pm 24.3 23.1 9.5 39 8.1 SW 6 9 3 5 1016.9 1016.2 0.0
17/02:30pm 24.5 22.5 8.5 36 8.7 SSE 9 19 5 10 1017.0 - 0.0
17/02:00pm 23.2 20.6 9.2 41 7.6 S 13 19 7 10 1017.3 1016.6 0.0
17/01:30pm 23.8 21.8 8.6 38 8.2 SSE 9 15 5 8 1017.6 - 0.0
17/01:00pm 23.1 20.4 8.8 40 7.7 SSE 13 20 7 11 1017.9 1017.2 0.0
17/12:30pm 23.8 22.4 10.8 44 7.3 S 9 15 5 8 1018.3 - 0.0
17/12:00pm 24.1 22.2 8.9 38 8.3 S 9 19 5 10 1018.7 1018.0 0.0
17/11:30am 23.3 20.7 10.7 45 7.0 SSE 15 20 8 11 1019.3 - 0.0
17/11:00am 22.8 20.3 11.2 48 6.5 SSE 15 20 8 11 1019.8 1019.1 0.0
17/10:30am 22.1 20.5 11.5 51 6.0 SSE 11 17 6 9 1020.0 - 0.0
17/10:00am 21.2 20.1 13.1 60 4.7 S 11 17 6 9 1020.0 1019.4 0.0
17/09:30am 19.6 17.1 12.4 63 4.1 SSE 17 20 9 11 1020.1 - 0.0
17/09:00am 17.8 15.5 11.6 67 3.4 S 15 20 8 11 1020.1 1019.5 0.0
17/08:30am 16.7 15.2 12.0 74 2.6 SSE 11 17 6 9 1020.0 - 0.0
17/08:00am 15.0 12.7 11.6 80 1.8 SSE 15 19 8 10 1019.8 1019.1 0.0
17/07:30am 13.3 10.5 11.4 88 1.0 SSE 17 22 9 12 1019.6 - 0.0
17/07:00am 11.9 10.5 10.8 93 0.6 S 9 13 5 7 1019.2 1018.5 0.0
17/06:30am 11.2 9.5 9.9 92 0.7 SSE 9 13 5 7 1018.8 - 0.0
17/06:00am 11.9 10.7 10.3 90 0.8 SSE 7 13 4 7 1018.7 1018.0 0.0
17/05:30am 12.3 10.9 11.0 92 0.7 SSE 9 15 5 8 1018.4 - 0.0
17/05:00am 10.7 8.9 9.5 92 0.6 SSE 9 13 5 7 1018.2 1017.5 0.0
17/04:30am 11.5 9.8 9.9 90 0.8 S 9 11 5 6 1017.9 - 0.0
17/04:00am 12.0 10.3 9.9 87 1.1 S 9 13 5 7 1017.7 1017.0 0.0
17/03:30am 12.5 12.1 9.9 84 1.3 SSE 2 7 1 4 1017.6 - 0.0
17/03:00am 13.0 12.6 9.8 81 1.7 SE 2 9 1 5 1017.5 1016.8 0.0
17/02:30am 13.8 10.7 10.2 79 1.9 SSE 17 22 9 12 1017.6 - 0.0
17/02:00am 14.4 11.3 10.2 76 2.2 SSE 17 22 9 12 1017.6 1016.9 0.0
17/01:30am 14.8 11.3 10.2 74 2.4 SSE 19 24 10 13 1017.7 - 0.0
17/01:00am 15.3 11.8 10.3 72 2.7 SE 19 24 10 13 1017.8 1017.1 0.0
17/12:30am 15.8 12.3 10.3 70 2.9 SE 19 24 10 13 1018.0 - 0.0
17/12:00am 15.8 12.3 10.1 69 3.0 SE 19 26 10 14 1018.0 1017.3 0.0
 
Date/Time
EST
Temp
°C
App
Temp
°C
Dew
Point
Rel
Hum
%
Delta-T
°C
Wind Press
QNH
hPa
Press
MSL
hPa
Rain
since 9 am
mm
Dir
 
Spd
km/h
Gust
km/h
Spd
kts
Gust
kts
16/11:30pm 16.2 12.7 10.1 67 3.2 SSE 19 22 10 12 1018.0 - 0.0
16/11:00pm 16.6 13.0 9.8 64 3.6 SSE 19 24 10 13 1017.9 1017.2 0.0
16/10:30pm 16.9 13.6 9.6 62 3.9 SE 17 24 9 13 1017.9 - 0.0
16/10:00pm 17.3 14.4 9.7 61 4.0 SSE 15 20 8 11 1018.0 1017.3 0.0
16/09:30pm 17.9 15.4 9.8 59 4.3 SE 13 20 7 11 1018.0 - 0.0
16/09:00pm 17.1 14.9 9.3 60 4.1 E 11 20 6 11 1017.9 1017.2 0.0
16/08:30pm 18.5 16.0 9.8 57 4.7 SE 13 19 7 10 1017.7 - 0.0
16/08:00pm 18.7 15.8 9.8 56 4.8 SE 15 19 8 10 1017.7 1017.0 0.0
16/07:30pm 19.1 16.3 9.9 55 5.0 SE 15 19 8 10 1017.4 - 0.0
16/07:00pm 18.6 16.9 9.9 57 4.7 SSE 9 13 5 7 1017.0 1016.3 0.0
16/06:30pm 18.8 17.2 10.1 57 4.7 SSE 9 13 5 7 1016.9 - 0.0
16/06:00pm 18.7 17.5 10.3 58 4.5 S 7 9 4 5 1016.5 1015.8 0.0
16/05:30pm 21.1 19.8 10.0 49 6.1 SSE 7 9 4 5 1016.0 - 0.0
16/05:00pm 22.1 20.4 9.9 46 6.7 SSE 9 13 5 7 1015.7 1015.0 0.0
16/04:30pm 23.9 21.5 10.2 42 7.6 SSE 13 20 7 11 1015.5 - 0.0
16/04:00pm 24.1 21.0 8.9 38 8.3 SSE 15 20 8 11 1015.6 1014.9 0.0
16/03:30pm 23.0 19.6 9.0 41 7.6 S 17 24 9 13 1015.8 - 0.0
16/03:00pm 24.6 21.3 9.7 39 8.2 S 17 24 9 13 1015.9 1015.2 0.0
16/02:30pm 24.7 21.1 10.6 41 7.9 S 20 26 11 14 1016.0 - 0.0
16/02:00pm 24.1 20.4 9.3 39 8.1 SE 19 26 10 14 1016.0 1015.3 0.0
16/01:30pm 24.5 20.8 10.0 40 8.1 S 20 26 11 14 1016.1 - 0.0
16/01:00pm 24.4 22.2 10.7 42 7.7 SSE 13 22 7 12 1016.4 1015.7 0.0
16/12:30pm 23.8 21.0 11.2 45 7.1 S 17 28 9 15 1017.0 - 0.0
16/12:00pm 23.2 20.9 11.6 48 6.6 SSE 15 20 8 11 1017.4 1016.7 0.0
16/11:30am 23.2 20.3 12.2 50 6.3 SSE 19 26 10 14 1017.8 - 0.0
16/11:00am 21.4 18.4 12.0 55 5.3 SE 19 28 10 15 1018.0 1017.3 0.0
16/10:30am 20.9 17.4 12.1 57 5.0 SSE 22 33 12 18 1018.6 - 0.0

Other Formats:

Comma delimited format used in spreadsheet applications
http://www.bom.gov.au/fwo/IDN60801/IDN60801.95734.axf

JavaScript Object Notation format (JSON) in row-major order
http://www.bom.gov.au/fwo/IDN60801/IDN60801.95734.json